OPS 4682 DEB, 38459

Orbit data source: Space-Track

OPS 4682 DEB, 38459 is space debris in LEO originally from a launch on Sat, 03 Apr 1965 UTC launched from the Air Force Western Test Range (AFWTR). Debris objects in space refer to the collection of defunct objects orbiting the Earth. Examples of debris include non-operational satellites, rocket bodies, and fragments generated from explosions, collisions, or faulty payload assembly.

Loading next visibility...
Identifier
38459, 1965-027FQ
Orbit
LEO
Country
Flag of USUS
Related business
Manufacturer
Unknown
Mission
Spacecraft
Bus & Motor
Unknown
Mass
Unknown
Launch date (UTC)
1965-04-03 (61 years ago)
Launch vehicle
Unknown
Launch site
Air Force Western Test Range (AFWTR)
Object type
Payload
Rocket body
Debris
Shape & HBR
Unknown shape, 0.1 m
Radar Cross Section
Small (<0.1 m²)

Expand to show TLE details & history
Last TLE update: 19 hours ago

TLE from 19 hours ago
0 OPS 4682 DEB
1 38459U 65027FQ  26118.95052693  .00000013  00000-0  19317-4 0  9995
2 38459  90.2431   5.0482 0031030  56.0995 304.3068 12.92914984542127
Epoch: 2026-04-28T22:48Z
TLE epoch observation values (Epoch: 2026-04-28T22:48:45.526Z)
Latitude
-0°
Longitude
165.94002°
Altitude
1,279.483 km
Speed
7.222 km/s
True Right ascension
00h 20m 11s
True Declination
0° 00' 00"
Sunlit
Object was in daylight at epoch
Visualization orbit readout
Latitude
Unknown
Longitude
Unknown
Altitude
Unknown
Speed
Unknown
Apparent Right ascension
Unknown
Apparent Declination
Unknown
Sunlit
N/A
Visualization observer readout
Local Sidereal Time
01:44:58
Azimuth
Unknown
Elevation
Unknown
Doppler factor
Unknown
Orbital elements
Apogee altitude
1,310.896 km
Perigee altitude
1,263.325 km
Semi-major axis
7,665.247 km
Eccentricity
0.0031
Inclination
90.2431°
RAAN
5.0482°
Arg. of periapsis
56.0995°
True anomaly
304.01244°
Mean anomaly
304.3068°
Eccentric anomaly
304.15968°
Mean motion
3.2341 °/min
Orbital period
111.31 mins
BSTAR
0.000019317
Loading maneuver chart data...
Computing Atmospheric mass density...
Loading historical data...
Loading historical data...
Loading historical data...
Loading historical data...
Loading historical data...
Loading historical data...
Loading historical data...

Documentation

Showing up to 5 results
|